Content
SEND FEEDBACK

Daily
Averages
Monthly
Summary
United Kingdom

HOLME UPON SPALDING, ENGLAND


Home > Europe > United Kingdom > England
Elevation: 12 feet     Latitude: 53 48N     Longitude: 000 45W

WEATHER
 
SELECT A DAY
Number of Records: 48,838;   Date Range: 6/27/01 - 12/19/13
 
SHARE

PRINT THIS DATA

[ ← Previous Day ]
WEATHER ALMANAC - SEPTEMBER 28, 2013
[ Next Day → ]
[ °C ]   °F
Weather ElementAverageHighLow
Temperature53.5 °F65 °F (3:50 pm)42.8 °F (4:50 am)
Dewpoint46.6 °F53.6 °F (10:50 am)42.8 °F (3:50 am)
Humidity78.6 %100 % (1:50 am)38 % (3:50 pm)
Barometer29.91 in29.95 in (1:50 am)29.86 in (2:50 pm)
Wind Speed8 mph16.1 mph (3:50 pm)
Weather ElementAverage
Visibility6.9 mi
Wind DirectionESE (115 °)

Weather ElementTotal
Precipitation---
Heating Degree Days11.1 (Base 65)
Growing Degree Days3.9 (Base 50)
Averaged from 30 records on September 28, 2013
WEATHER CONDITIONS BREAKOUT
WIND DIRECTION BREAKOUT
WEATHER BY HOUR - SEPTEMBER 28, 2013
[ °C ]   °F
Local TimeTemperatureDewpointHumidityBarometerVisibilityWind DirectionWind SpeedGust SpeedPrecipitationEventsConditions
1:50 AM44.6 °F44.6 °F100 %29.95 in6.2 miEast (90°)3.5 mphPartly Cloudy
2:50 AM44.6 °F44.6 °F100 %29.95 in5.0 miSouth (190°)1.2 mphPartly Cloudy
3:50 AM44.0 °F43.0 °F96 %29.95 in3.0 miNorth (10°)2.3 mphMist
3:50 AM44.6 °F42.8 °F93 %29.95 inNorth (10°)2.3 mphMostly Cloudy
4:50 AM42.8 °F42.8 °F100 %29.92 inNNE (30°)3.5 mphPartly Cloudy
5:50 AM42.8 °F42.8 °F100 %29.92 in1.3 miNNW (340°)4.6 mphPartly Cloudy
6:50 AM44.6 °F44.6 °F100 %29.92 inNNW (340°)3.5 mphMostly Cloudy
6:50 AM45.0 °F44.0 °F97 %29.93 in2.0 miNNW (340°)3.5 mphMist
7:50 AM46.4 °F44.6 °F93 %29.92 inNNW (340°)4.6 mphMostly Cloudy
8:50 AM50.0 °F48.2 °F94 %29.92 in3.7 miNE (50°)2.3 mphOvercast
9:50 AM55.0 °F52.0 °F86 %29.94 in6.0 miEast (100°)4.6 mphMist
9:50 AM55.4 °F51.8 °F88 %29.92 in5.6 miEast (100°)4.6 mphHaze
10:50 AM59.0 °F53.6 °F82 %29.92 in5.6 miESE (110°)5.8 mphHaze
11:50 AM60.8 °F50.0 °F68 %29.92 in6.2 miESE (110°)10.4 mphScattered Clouds
12:50 PM62.6 °F48.2 °F59 %29.89 in6.2 miEast (80°)10.4 mph
12:50 PM63.0 °F48.0 °F48 %29.91 in13.0 miEast (80°)10.4 mph
1:50 PM64.4 °F48.2 °F56 %29.89 in6.2 miEast (100°)12.7 mph
2:50 PM64.4 °F42.8 °F45 %29.86 in6.2 miEast (100°)13.8 mph
3:50 PM65.0 °F45.0 °F38 %29.87 in17.0 miEast (80°)16.1 mph
3:50 PM64.4 °F44.6 °F49 %29.86 in6.2 miEast (80°)16.1 mph
4:50 PM62.6 °F50.0 °F63 %29.86 in6.2 miESE (110°)16.1 mph
5:50 PM60.8 °F48.2 °F63 %29.86 in6.2 miEast (90°)15.0 mph
6:50 PM57.2 °F46.4 °F67 %29.86 in6.2 miEast (100°)15.0 mph
6:50 PM57.0 °F46.0 °F57 %29.88 in18.0 miEast (100°)15.0 mph
7:50 PM55.4 °F48.2 °F77 %29.89 in6.2 miEast (90°)10.4 mph
8:50 PM53.6 °F48.2 °F82 %29.89 in6.2 miEast (90°)9.2 mph
9:50 PM50.0 °F47.0 °F85 %29.92 in12.0 miENE (60°)5.8 mph
9:50 PM50.0 °F46.4 °F87 %29.92 in6.2 miENE (60°)5.8 mph
10:50 PM48.2 °F46.4 °F93 %29.92 in6.2 miNNE (30°)5.8 mph
11:50 PM48.2 °F46.4 °F93 %29.92 in5.6 miNE (40°)4.6 mphMist
Hourly data recorded from EGXG, located miles away from Holme upon Spalding, England







STORIES FROM OUR PARTNERS